Liste des engagé(e)s
Classement
PDF
   
         
   
 
Pos N¬į Nom Pr√©nom Pays Temps Ecart Pl. Cat. Pl. Sexe Club
1 1090 CHAVAGNAT Aurélien 00:03:30 PO 1 M
2 1101 GELLENS Alo√Įs 00:03:44 14 PO 2 M
3 1177 GRAIL DIMITRI 00:03:48 18 PO 3 M
4 1115 PERENON Arthur 00:03:50 20 PO 4 M
5 1089 ALTHUSER Paul 00:03:52 22 PO 5 M
6 1004 GARREL Camille 00:03:52 22 PO 1 F
7 1087 BABA Marceau 00:03:55 25 PO 6 M
8 1011 BONNEFOY Alexis 00:03:57 27 PO 7 M
9 1071 DODOS Matilda 00:03:58 28 PO 2 F
10 1110 MILLAND Lou 00:04:00 30 PO 3 F
11 1108 LABERT Maé 00:04:02 32 PO 8 M
12 1074 PERCELAY Corentin 00:04:02 32 EA 9 M
13 1162 DENIS Elya 00:04:03 33 PO 4 F
14 1112 ANDR√Č Charlotte 00:04:03 33 PO 5 F
15 1003 MILON Owen 00:04:04 34 PO 10 M
16 1113 SPOLTI Samuel 00:04:04 34 PO 11 M
17 1136 GONON Gabin 00:04:05 35 PO 12 M
18 1137 EBEMBI Kyllian 00:04:05 35 PO 13 M
19 1014 HALLER Célian 00:04:06 36 EA 14 M
20 1126 FROMAGET VALLE Adrien 00:04:09 39 PO 15 M
21 1118 BRUGNERA Mathéo 00:04:10 40 PO 16 M
22 1017 CANDIAGO Sacha 00:04:10 40 PO 17 M
23 1058 ALTHUSER Malo 00:04:11 41 EA 18 M
24 1156 CHOSSAT Agathe 00:04:12 42 PO 6 F
25 1092 PACE Anatole 00:04:12 42 EA 19 M
26 1099 DE PAEPE Jeanne 00:04:13 43 PO 7 F
27 1007 FUGIER Elisa 00:04:14 44 PO 8 F
28 1163 HIDALGO Rapha√ęl 00:04:15 45 PO 20 M
29 1097 TOUR√Č Aliou 00:04:15 45 EA 21 M
30 1001 LINGARD Andy 00:04:17 47 PO 22 M
31 1008 DEWULF Marie-eden 00:04:17 47 PO 9 F
32 1165 LEFEBVRE Katell 00:04:18 48 PO 10 F
33 1196 POTI√Č Cl√©ment 00:04:18 48 PO 23 M
34 1018 PAESANO Luna 00:04:18 48 PO 11 F
35 1009 CERDAN Rafa√ęl 00:04:20 50 PO 24 M
36 1134 FAUCHER Simon 00:04:24 54 EA 25 M
37 1157 KOLYTCHEFF Ivann 00:04:25 55 PO 26 M
38 1127 FROMAGET VALLE David 00:04:26 56 EA 27 M
39 1114 DROUARD Adèle 00:04:27 57 PO 12 F
40 1005 PHILIPPE Marie 00:04:27 57 PO 13 F
41 1117 MATHIEU Bastian 00:04:28 58 PO 28 M
42 1104 VARNIER Pierre 00:04:28 58 PO 29 M
43 1095 CHARRASSE Eliott 00:04:29 59 EA 30 M
44 1119 WAGNER Baptiste 00:04:31 01:01 PO 31 M
45 1019 GRANGI√Č Maya 00:04:31 01:01 PO 14 F
46 1143 LOPEZ Lucie 00:04:32 01:02 PO 15 F
47 1130 BOUTEILLE Timothe 00:04:32 01:02 PO 32 M
48 1002 RICHARD Isalia 00:04:32 01:02 PO 16 F
49 1096 COLLET FENETRIER Loris 00:04:33 01:03 PO 33 M
50 1020 GHILARDI Ines 00:04:34 01:04 PO 17 F
51 1077 BRUGNERA Thomas 00:04:35 01:05 EA 34 M
52 1098 MOROTE HUMBERT Santiago 00:04:35 01:05 PO 35 M
53 1131 GRANGI√Č Amy 00:04:38 01:08 EA 18 F
54 1082 ESTEBAN Monteillet 00:04:40 01:10 EA 36 M
55 1006 BURLET-PARENDEL Victoria 00:04:40 01:10 PO 19 F
56 1192 ROUDIER GABRIEL 00:04:42 01:12 EA 37 M
57 1132 ETCHEVERRY Lou-anne 00:04:42 01:12 EA 20 F
58 1012 THULLIEZ Marie 00:04:42 01:12 PO 21 F
59 1166 LEFEBVRE Tifenn 00:04:43 01:13 EA 22 F
60 1133 FAUCHER Augustin 00:04:43 01:13 EA 38 M
61 1013 THULLIEZ Lucie 00:04:44 01:14 EA 23 F
62 1191 ROLLOT ARNAUD 00:04:44 01:14 EA 39 M
63 1061 DERIAT Elo√Įse 00:04:44 01:14 EA 24 F
64 1015 ATTALI Martin 00:04:45 01:15 PO 40 M
65 1088 DE SAINT ALBIN Paul 00:04:46 01:16 PO 41 M
66 1047 DUPERRAY Zachary 00:04:46 01:16 EA 42 M
67 1123 TAPPA Rémi 00:04:46 01:16 EA 43 M
68 1070 NOBILE Emmanuel 00:04:47 01:17 EA 44 M
69 1016 FROMENTY Lucie 00:04:47 01:17 PO 25 F
70 1147 ROUSTAN Eudes 00:04:48 01:18 PO 45 M
71 1100 GAJEAN Lily 00:04:50 01:20 PO 26 F
72 1057 LINGARD Matthieu 00:04:52 01:22 EA 46 M
73 1040 PERCELAY Bréwen 00:04:53 01:23 EA 47 M
74 1072 SPOLTI Thomas 00:04:54 01:24 EA 48 M
75 1010 VUEZ Colin 00:04:55 01:25 EA 49 M
76 1116 PERCELAY Soazig 00:04:55 01:25 PO 27 F
77 1124 BELKORCHIA Anais 00:04:55 01:25 PO 28 F
78 1106 CERDAN Carla 00:04:56 01:26 PO 29 F
79 1153 MARTIN Allan 00:04:56 01:26 EA 50 M
80 1178 MAURIN ALEXANDRE 00:04:57 01:27 EA 51 M
81 1062 BRISION Elodie 00:04:58 01:28 EA 30 F
82 1079 WAGNER Margaux 00:04:58 01:28 EA 31 F
83 1049 GERVASONI Eugenie 00:04:58 01:28 SE 32 F
84 1200 BROCHU SIMON 00:04:59 01:29 EA 52 M
85 1067 LUTROT Clara 00:05:01 01:31 EA 33 F
86 1064 GARS Amaury 00:05:01 01:31 EA 53 M
87 1111 VISCUSO Martin 00:05:02 01:32 PO 54 M
88 1022 DARCISSAC Thibaud 00:05:02 01:32 SE 55 M
89 1142 MIGLINO Rapha√ęlle 00:05:02 01:32 EA 34 F
90 1182 MISCHEL Eliott 00:05:02 01:32 EA 56 M
91 1026 FREYCENON Thibaut 00:05:04 01:34 EA 57 M
92 1105 FERREIRA Jade 00:05:04 01:34 PO 35 F
93 1059 RICHARD Eléane 00:05:05 01:35 EA 36 F
94 1164 RUEL Simon 00:05:06 01:36 EA 58 M
95 1167 MICOUD Aymeric 00:05:06 01:36 EA 59 M
96 1045 BOSSANNE DOUCHANT Anatole 00:05:07 01:37 SE 60 M
97 1176 HOMAND MANON 00:05:07 01:37 EA 37 F
98 1103 CHAVASSE-FRETTE Andy 00:05:09 01:39 EA 61 M
99 1129 HUGUET-BENASSY Manon 00:05:11 01:41 EA 38 F
100 1128 NEMOZ Valentine 00:05:13 01:43 EA 39 F
101 1076 BERANGER Louna 00:05:13 01:43 PO 40 F
102 1197 JULIEN KLOE 00:05:14 01:44 EA 41 F
103 1159 JOURDAIN BESSON Mai lan 00:05:14 01:44 EA 42 F
104 1138 BOUJRAD Widad 00:05:15 01:45 PO 43 F
105 1148 LECUNA Santiago 00:05:16 01:46 PO 62 M
106 1075 MATHIEU Nathan 00:05:17 01:47 EA 63 M
107 1029 POYET Valentin 00:05:18 01:48 SE 64 M
108 1146 RICHARD Loriane 00:05:19 01:49 PO 44 F
109 1144 DAVIS Ty 00:05:20 01:50 EA 65 M
110 1068 FAUX Clelia 00:05:20 01:50 EA 45 F
111 1063 CAILLIERET Adam 00:05:22 01:52 SE 66 M
112 1023 DARCISSAC Sacha 00:05:22 01:52 SE 67 M
113 1081 DA FONSECA Rafael 00:05:23 01:53 EA 68 M
114 1083 NOIR Jeanne 00:05:26 01:56 SE 46 F
115 1051 LANGLOIS Lea 00:05:29 01:59 EA 47 F
116 1084 BORELLA Ninon 00:05:30 02:00 EA 48 F
117 1065 CHEVALIER Anae 00:05:30 02:00 EA 49 F
118 1273 DELLABAERE SONNY 00:05:33 02:03 EA 69 M
119 1073 MICOUD Béryl 00:05:33 02:03 EA 50 F
120 1094 MILON Elen 00:05:34 02:04 EA 51 F
121 1174 FREMAUX LEO 00:05:36 02:06 EA 70 M
122 1171 MICON APAULINE 00:05:37 02:07 EA 52 F
123 1038 VALETTE Louise 00:05:40 02:10 SE 53 F
124 1109 FAUX Romane 00:05:41 02:11 PO 54 F
125 1161 SOUMET DE OLIVEIRA Louis 00:05:41 02:11 EA 71 M
126 1044 FROMENTY Sacha 00:05:42 02:12 SE 72 M
127 1027 CHARRASSE Mahe 00:05:42 02:12 SE 73 M
128 1093 THIBAUD Manon 00:05:42 02:12 PO 55 F
129 1050 LANGLOIS Emma 00:05:45 02:15 SE 56 F
130 1080 MARTEAU Hector 00:05:45 02:15 EA 74 M
131 1086 VANPOUILLE Alexis 00:05:46 02:16 EA 75 M
132 1066 VUEZ Alyssia 00:05:48 02:18 SE 57 F
133 1120 MARTEAU Léoni 00:05:49 02:19 EA 58 F
134 1060 REY-GALIAY Kélian 00:05:50 02:20 SE 76 M
135 1032 DE PAEPE Gabriel 00:05:52 02:22 SE 77 M
136 1042 MARTEAU Alice 00:05:52 02:22 SE 59 F
137 1025 BOTTIN Mathieu 00:05:53 02:23 SE 78 M
138 1085 GRANGI√Č Laur√®ne 00:05:54 02:24 EA 60 F
139 1145 DAVIS Zoé 00:05:55 02:25 SE 61 F
140 1052 GUILLAUD-ROLLIN Sam 00:05:58 02:28 SE 79 M
141 1150 DUPARD Emy 00:06:06 02:36 SE 62 F
142 1091 GERVASONI Lucien 00:06:07 02:37 EA 80 M
143 1274 DELABAERE MILAN 00:06:08 02:38 EA 81 M
144 1139 NTYAME NKOUMOU Lhya 00:06:15 02:45 PO 63 F
145 1107 BOUJRAD Wassim 00:06:16 02:46 EA 82 M
146 1152 MARTIN Nathan 00:06:17 02:47 SE 83 M
147 1021 DE SAINT ALBIN Laure 00:06:18 02:48 SE 64 F
148 1149 FUZET Marine 00:06:25 02:55 EA 65 F
149 1195 POTI√Č L√©onie 00:06:28 02:58 EA 66 F
150 1194 POTI√Č Louise 00:06:30 03:00 SE 67 F
151 1048 AMOUDRUZ Clémence 00:06:31 03:01 SE 68 F
152 1054 MIGLINO Lucue 00:06:38 03:08 SE 69 F
153 1035 DODOS Chloe 00:06:41 03:11 EA 70 F
154 1036 DODOS Lison 00:06:41 03:11 SE 84 M
155 1039 PACHE Leo 00:06:42 03:12 SE 85 M
156 1030 MARECAUX Aimé 00:07:01 03:31 SE 86 M
157 1102 GARREL Lucie 00:07:02 03:32 PO 71 F
158 1155 MBARGA Lilian 00:07:05 03:35 SE 87 M
159 1028 BOURG Lohan 00:07:10 03:40 SE 88 M
160 1193 ROUDIER ANTONIN 00:07:31 04:01 SE 89 M
161 1041 HOULLIERE Gabriel 00:07:42 04:12 SE 90 M
162 1046 BOSSANNE DOUCHANT Célestin 00:07:50 04:20 SE 91 M
163 1055 BORELLA Gaspard 00:08:07 04:37 SE 92 M
164 1169 GOURVEST MAYA 00:08:18 04:48 EA 72 F
  La Course des Mini-lutins - 0.8km 2016
 
Nombre ou lettres (3 minimum)
Classement    
Filtre :
Rang :